{"data":{"norad_id":66220,"intl_designator":"2025-244Q","name":"STARLINK-35677","alt_names":[],"object_type":"PAYLOAD","status":"ACTIVE","operator":null,"country":"US","launch_date":"2025-10-28","launch_site_code":"AFWTR","launch_vehicle":null,"mission":null,"orbit_class":"UNKNOWN","rcs_meters":null,"size_class":null,"mass_kg":null,"dimensions":null,"purposes":["comms"],"wikipedia_slug":null,"has_3d_model":false,"image_url":null,"decayed_at":null,"tle_current":{"epoch":"2026-09-20T13:05:59.154720Z","epoch_age_seconds":92755,"freshness":"FRESH","line1":"1 66220U 25244Q   26263.54582355  .00025203  00000+0  75431-3 0  9993","line2":"2 66220  53.1583  41.2216 0000932 108.7248 251.3855 15.34410293 51549","mean_motion":15.34410293,"eccentricity":9.32e-5,"inclination_deg":53.1583,"raan_deg":41.2216,"arg_perigee_deg":108.7248,"mean_anomaly_deg":251.3855,"bstar":0.00075431,"rev_number":5154,"period_min":93.847128539824,"perigee_km":462.03508395383,"apogee_km":463.31021087211,"semimajor_km":6840.809647413,"source":"CELESTRAK","updated_at":"2026-09-21T09:00:35.842460Z"}}}